NORTHERN QUEENS  -  Air Quality Alert Air Quality Alert        SOUTHERN QUEENS  -  Air Quality Alert Air Quality Alert      

Active alerts

Northern Queens
  Details for Northern Queens Air Quality Alert
Southern Queens
  Details for Southern Queens Air Quality Alert


WXM80 ListenWXM80 Stop

You find our weather info also at:

UK Metoffice

WeatherCloud

Weather Underground

Northeastern Weather Network

AWEKAS

Citizen Weather Observer Program (CWOP)

HAMweather, WeatherForYou, PWS Weather


Weather Underground History page Text

Daily Summary for September 28, 2017 Units:  Metric    English   Both
« Previous Day
Next Day »
Daily Weekly Monthly Yearly Custom
  High: Low: Average:
Temperature: 26.4 °C 16.8 °C 22.2 °C
Dew Point: 22.4 °C 9.3 °C 15.9 °C
Humidity: 98 % 46 % 70 %
Wind Speed: 16.9 km/h 0 km/h 7.2 km/h
Wind Gust: 32.2 km/h - -
Wind:- - SSE
Pressure: 1010.4 hPa 1001.6 hPa -
Precipitation: 0 mm    
Historical Graphs
 
 
Tabular Data for September 28, 2017
Time Temperature Dew Point Pressure Wind Wind Speed Wind Gust Humidity Rainfall Rate (Hourly)
00:02 22.8 °C 22.3 °C 1003.3 hPa Calm     97 % 0 mm
00:07 22.8 °C 22.3 °C 1003.3 hPa Calm     97 % 0 mm
00:12 22.8 °C 22.3 °C 1003.3 hPa Calm     97 % 0 mm
00:17 22.8 °C 22.3 °C 1002.9 hPa Calm     97 % 0 mm
00:22 22.8 °C 22.3 °C 1002.9 hPa Calm     97 % 0 mm
00:27 22.9 °C 22.4 °C 1002.9 hPa ENE 0.3 km/h 3.2 km/h 97 % 0 mm
00:32 22.9 °C 22.4 °C 1002.9 hPa Calm     97 % 0 mm
00:37 22.8 °C 22.3 °C 1003.3 hPa Calm     97 % 0 mm
00:42 22.8 °C 22.3 °C 1002.9 hPa Calm     97 % 0 mm
00:47 22.8 °C 22.3 °C 1002.9 hPa NE 1.1 km/h 4.8 km/h 97 % 0 mm
00:52 22.9 °C 22.4 °C 1002.9 hPa Calm     97 % 0 mm
00:57 22.9 °C 22.4 °C 1002.9 hPa Calm   1.9 km/h 97 % 0 mm
01:02 22.9 °C 22.4 °C 1002.9 hPa NE 0.2 km/h 1.9 km/h 97 % 0 mm
01:07 22.9 °C 22.4 °C 1002.6 hPa Calm   1.9 km/h 97 % 0 mm
01:12 22.9 °C 22.4 °C 1002.6 hPa NE 0.2 km/h 1.9 km/h 97 % 0 mm
01:17 22.9 °C 22.4 °C 1002.6 hPa Calm   1.9 km/h 97 % 0 mm
01:23 22.9 °C 22.4 °C 1002.6 hPa NNE 3.2 km/h 5.6 km/h 97 % 0 mm
01:28 22.8 °C 22.3 °C 1002.3 hPa North 3.1 km/h 7.4 km/h 97 % 0 mm
01:33 22.8 °C 22.3 °C 1002.6 hPa North 0.8 km/h 5.6 km/h 97 % 0 mm
01:38 22.8 °C 22.3 °C 1002.3 hPa Calm   1.9 km/h 97 % 0 mm
01:43 22.7 °C 22.2 °C 1002.3 hPa Calm     97 % 0 mm
01:48 22.7 °C 22.2 °C 1002.6 hPa NNE 0.8 km/h 3.7 km/h 97 % 0 mm
01:53 22.7 °C 22.2 °C 1002.6 hPa NNE 2.1 km/h 5.6 km/h 97 % 0 mm
01:58 22.6 °C 22.1 °C 1002.6 hPa NNE 4.3 km/h 5.6 km/h 97 % 0 mm
02:03 22.6 °C 22.1 °C 1002.6 hPa North 4 km/h 7.4 km/h 97 % 0 mm
02:08 22.6 °C 22.1 °C 1002.6 hPa NNE 3.7 km/h 5.6 km/h 97 % 0 mm
02:13 22.5 °C 22 °C 1002.9 hPa NE 4.3 km/h 9.3 km/h 97 % 0 mm
02:18 22.4 °C 21.9 °C 1002.6 hPa NNE 2.3 km/h 5.6 km/h 97 % 0 mm
02:23 22.4 °C 21.9 °C 1002.6 hPa ENE 0.3 km/h 1.9 km/h 97 % 0 mm
02:28 22.4 °C 21.9 °C 1002.6 hPa ENE 1 km/h 3.7 km/h 97 % 0 mm
02:33 22.3 °C 21.8 °C 1002.3 hPa Calm     97 % 0 mm
02:35 22.3 °C 21.8 °C 1002.3 hPa Calm     97 % 0 mm
02:41 22.3 °C 21.8 °C 1002.3 hPa Calm   1.6 km/h 97 % 0 mm
02:51 22.3 °C 21.8 °C 1002.3 hPa Calm     97 % 0 mm
02:56 22.3 °C 21.8 °C 1001.9 hPa Calm   4.8 km/h 97 % 0 mm
03:01 22.3 °C 21.8 °C 1001.9 hPa Calm     97 % 0 mm
03:06 22.3 °C 21.8 °C 1002.3 hPa North 3.9 km/h 7.4 km/h 97 % 0 mm
03:11 22.3 °C 21.8 °C 1002.3 hPa North 3.2 km/h 5.6 km/h 97 % 0 mm
03:16 22.2 °C 21.7 °C 1002.3 hPa North 1.4 km/h 5.6 km/h 97 % 0 mm
03:21 22.2 °C 21.7 °C 1002.3 hPa Calm     97 % 0 mm
03:26 22.2 °C 21.7 °C 1002.3 hPa NNE 0.5 km/h 5.6 km/h 97 % 0 mm
03:31 22.2 °C 21.7 °C 1002.3 hPa Calm     97 % 0 mm
03:36 22.3 °C 21.8 °C 1001.9 hPa Calm     97 % 0 mm
03:41 22.3 °C 21.8 °C 1001.9 hPa Calm     97 % 0 mm
03:46 22.2 °C 21.7 °C 1001.9 hPa Calm     97 % 0 mm
03:51 22.3 °C 21.8 °C 1001.9 hPa Calm     97 % 0 mm
03:56 22.3 °C 21.8 °C 1001.9 hPa Calm     97 % 0 mm
04:01 22.3 °C 21.8 °C 1001.6 hPa North 3.5 km/h 6.4 km/h 97 % 0 mm
04:06 22.4 °C 22.1 °C 1001.9 hPa North 6 km/h 9.7 km/h 98 % 0 mm
04:11 22.6 °C 22.2 °C 1001.9 hPa North 1.9 km/h 5.6 km/h 98 % 0 mm
04:16 22.6 °C 22.3 °C 1001.9 hPa NNW 3.7 km/h 5.6 km/h 98 % 0 mm
04:21 22.7 °C 22.3 °C 1001.9 hPa North 1.4 km/h 4.8 km/h 98 % 0 mm
04:26 22.7 °C 22.3 °C 1001.9 hPa NNE 4.7 km/h 7.4 km/h 98 % 0 mm
04:31 22.7 °C 22.4 °C 1001.9 hPa Calm   1.9 km/h 98 % 0 mm
04:36 22.7 °C 22.4 °C 1001.9 hPa Calm     98 % 0 mm
04:41 22.7 °C 22.4 °C 1001.9 hPa Calm     98 % 0 mm
04:46 22.7 °C 22.4 °C 1001.9 hPa Calm     98 % 0 mm
04:51 22.7 °C 22.4 °C 1001.9 hPa NW 0.8 km/h 3.7 km/h 98 % 0 mm
04:56 22.7 °C 22.4 °C 1001.9 hPa North 0.3 km/h 5.6 km/h 98 % 0 mm
05:01 22.7 °C 22.3 °C 1001.9 hPa NW 0.2 km/h 1.9 km/h 98 % 0 mm
05:06 22.7 °C 22.3 °C 1001.6 hPa NNW 1 km/h 5.6 km/h 98 % 0 mm
05:11 22.6 °C 22.1 °C 1001.6 hPa NNE 0.6 km/h 5.6 km/h 97 % 0 mm
05:16 22.6 °C 22.1 °C 1001.6 hPa NNE 0.5 km/h 3.7 km/h 97 % 0 mm
05:21 22.6 °C 22.2 °C 1001.6 hPa NW 6.8 km/h 9.3 km/h 98 % 0 mm
05:26 22.6 °C 22.2 °C 1001.6 hPa North 4.7 km/h 9.3 km/h 98 % 0 mm
05:31 22.6 °C 22.2 °C 1001.9 hPa North 5.6 km/h 13 km/h 98 % 0 mm
05:36 22.6 °C 22.2 °C 1001.9 hPa NNE 8.2 km/h 11.1 km/h 98 % 0 mm
05:41 22.6 °C 22.3 °C 1001.9 hPa North 4.2 km/h 7.4 km/h 98 % 0 mm
05:46 22.6 °C 22.3 °C 1001.9 hPa NE 1.3 km/h 5.6 km/h 98 % 0 mm
05:48 22.6 °C 22.2 °C 1001.9 hPa North 1.8 km/h 5.6 km/h 98 % 0 mm
05:53 22.6 °C 22.2 °C 1001.9 hPa NNE 1.4 km/h 6.4 km/h 98 % 0 mm
05:58 22.6 °C 22.2 °C 1001.9 hPa North 1.4 km/h 3.7 km/h 98 % 0 mm
06:03 22.5 °C 22.2 °C 1001.9 hPa North 2.6 km/h 5.6 km/h 98 % 0 mm
06:08 22.5 °C 22.2 °C 1001.9 hPa Calm   5.6 km/h 98 % 0 mm
06:13 22.4 °C 22.1 °C 1001.9 hPa NNE 1.1 km/h 5.6 km/h 98 % 0 mm
06:18 22.4 °C 22.1 °C 1001.9 hPa NNE 0.5 km/h 3.7 km/h 98 % 0 mm
06:23 22.4 °C 21.9 °C 1002.3 hPa North 0.8 km/h 5.6 km/h 97 % 0 mm
06:28 22.4 °C 21.9 °C 1002.3 hPa Calm   1.9 km/h 97 % 0 mm
06:33 22.3 °C 21.8 °C 1002.3 hPa North 1 km/h 3.7 km/h 97 % 0 mm
06:38 22.3 °C 21.8 °C 1002.3 hPa North 1 km/h 5.6 km/h 97 % 0 mm
06:43 22.3 °C 21.8 °C 1002.3 hPa NNE 1.1 km/h 9.7 km/h 97 % 0 mm
06:48 22.3 °C 21.8 °C 1002.6 hPa NNE 0.6 km/h 3.7 km/h 97 % 0 mm
06:53 22.2 °C 21.7 °C 1002.6 hPa NNE 5.6 km/h 9.3 km/h 97 % 0 mm
06:58 22.2 °C 21.7 °C 1002.6 hPa North 2.3 km/h 5.6 km/h 97 % 0 mm
07:03 22.2 °C 21.7 °C 1002.6 hPa NNE 4.5 km/h 13 km/h 97 % 0 mm
07:08 22.1 °C 21.6 °C 1002.6 hPa NNE 6.1 km/h 13 km/h 97 % 0 mm
07:13 21.9 °C 21.4 °C 1002.6 hPa ENE 9 km/h 13 km/h 97 % 0 mm
07:18 21.5 °C 20.8 °C 1002.6 hPa NNE 10.1 km/h 16.7 km/h 96 % 0 mm
07:23 21.2 °C 20.2 °C 1002.9 hPa NE 10.8 km/h 18.5 km/h 94 % 0 mm
07:28 20.9 °C 19.4 °C 1002.9 hPa North 10.6 km/h 18.5 km/h 91 % 0 mm
07:33 20.7 °C 18.8 °C 1002.9 hPa NNE 11.3 km/h 16.7 km/h 89 % 0 mm
07:39 20.6 °C 18.4 °C 1002.9 hPa NNW 8 km/h 13 km/h 87 % 0 mm
07:44 20.6 °C 17.6 °C 1002.9 hPa North 12.2 km/h 22.2 km/h 83 % 0 mm
07:49 20.5 °C 16.9 °C 1002.9 hPa North 14 km/h 22.2 km/h 80 % 0 mm
07:54 20.5 °C 17.1 °C 1002.9 hPa NNE 11.3 km/h 18.5 km/h 81 % 0 mm
07:59 20.5 °C 16.9 °C 1002.9 hPa NNE 10.3 km/h 14.8 km/h 80 % 0 mm
08:04 20.5 °C 16.7 °C 1002.9 hPa NNE 9.7 km/h 18.5 km/h 79 % 0 mm
08:09 20.6 °C 17 °C 1002.9 hPa NNE 9.5 km/h 16.7 km/h 80 % 0 mm
08:14 20.6 °C 16.8 °C 1002.9 hPa North 8.9 km/h 18.5 km/h 79 % 0 mm
08:19 20.6 °C 16.8 °C 1002.9 hPa North 7.7 km/h 14.8 km/h 79 % 0 mm
08:24 20.7 °C 16.9 °C 1003.3 hPa North 6.3 km/h 14.8 km/h 79 % 0 mm
08:29 20.7 °C 16.9 °C 1003.3 hPa NNW 5.3 km/h 13 km/h 79 % 0 mm
08:34 20.8 °C 16.6 °C 1003.3 hPa North 8.7 km/h 18.5 km/h 77 % 0 mm
08:35 20.8 °C 16.6 °C 1003.3 hPa NNE 12.6 km/h 16.7 km/h 77 % 0 mm
08:40 20.8 °C 16.6 °C 1003.3 hPa North 12.6 km/h 18.5 km/h 77 % 0 mm
08:45 20.8 °C 16.4 °C 1003.3 hPa North 4.3 km/h 11.1 km/h 76 % 0 mm
08:50 20.8 °C 16.4 °C 1003.3 hPa North 4.7 km/h 13 km/h 76 % 0 mm
08:55 20.8 °C 16.2 °C 1003.3 hPa North 8.2 km/h 13 km/h 75 % 0 mm
09:00 20.8 °C 16 °C 1003.3 hPa NNW 6.1 km/h 16.7 km/h 74 % 0 mm
09:05 20.7 °C 15.7 °C 1003.6 hPa North 6.8 km/h 18.5 km/h 73 % 0 mm
09:10 20.7 °C 15.3 °C 1003.6 hPa North 11.7 km/h 18.5 km/h 71 % 0 mm
09:15 20.7 °C 15 °C 1003.6 hPa NNE 11.7 km/h 19.3 km/h 70 % 0 mm
09:20 20.7 °C 15.2 °C 1003.6 hPa NNW 10.6 km/h 18.5 km/h 71 % 0 mm
09:26 20.7 °C 15.2 °C 1003.6 hPa North 8 km/h 19.3 km/h 71 % 0 mm
09:31 20.6 °C 14.9 °C 1003.6 hPa North 8.7 km/h 16.7 km/h 70 % 0 mm
09:36 20.6 °C 14.9 °C 1003.6 hPa NNE 11.3 km/h 24.1 km/h 70 % 0 mm
09:41 20.6 °C 14.7 °C 1003.6 hPa North 11.3 km/h 20.9 km/h 69 % 0 mm
09:46 20.6 °C 14.7 °C 1003.6 hPa NNE 11.3 km/h 22.5 km/h 69 % 0 mm
09:50 20.6 °C 14.9 °C 1003.9 hPa NNE 8 km/h 16.1 km/h 70 % 0 mm
09:56 20.6 °C 14.9 °C 1003.6 hPa NNE 12.9 km/h 20.9 km/h 70 % 0 mm
10:01 20.6 °C 14.7 °C 1003.6 hPa North 5.6 km/h 16.7 km/h 69 % 0 mm
10:06 20.6 °C 14.7 °C 1003.9 hPa NNE 9.7 km/h 16.7 km/h 69 % 0 mm
10:11 20.7 °C 14.8 °C 1003.9 hPa NNW 7.1 km/h 11.3 km/h 69 % 0 mm
10:16 20.9 °C 14.8 °C 1003.6 hPa NNE 8.4 km/h 13 km/h 68 % 0 mm
10:21 21.1 °C 14.7 °C 1003.6 hPa NNE 9.8 km/h 18.5 km/h 67 % 0 mm
10:26 21.2 °C 14.6 °C 1003.6 hPa NNE 8.7 km/h 16.7 km/h 66 % 0 mm
10:31 21.3 °C 14.5 °C 1003.6 hPa NE 8 km/h 14.8 km/h 65 % 0 mm
10:36 21.4 °C 14.8 °C 1003.6 hPa North 10.9 km/h 19.3 km/h 66 % 0 mm
10:41 21.4 °C 14.8 °C 1003.6 hPa NNW 8 km/h 14.8 km/h 66 % 0 mm
10:46 21.5 °C 14.4 °C 1003.6 hPa NNW 15.4 km/h 20.9 km/h 64 % 0 mm
10:47 21.5 °C 14.4 °C 1003.6 hPa NNE 12.4 km/h 22.2 km/h 64 % 0 mm
10:52 21.6 °C 14.7 °C 1003.6 hPa NNE 3.5 km/h 13 km/h 65 % 0 mm
10:57 21.6 °C 14.7 °C 1003.6 hPa North 8.7 km/h 14.8 km/h 65 % 0 mm
11:03 21.7 °C 14.4 °C 1003.6 hPa NNE 10.8 km/h 18.5 km/h 63 % 0 mm
11:08 21.9 °C 14.8 °C 1003.3 hPa North 8.9 km/h 18.5 km/h 64 % 0 mm
11:13 22.2 °C 14.8 °C 1003.6 hPa North 6.9 km/h 16.7 km/h 63 % 0 mm
11:18 22.7 °C 15.3 °C 1003.3 hPa North 8.5 km/h 18.5 km/h 63 % 0 mm
11:23 23.2 °C 15.5 °C 1003.3 hPa WNW 3.9 km/h 8 km/h 62 % 0 mm
11:28 23.6 °C 14.9 °C 1003.3 hPa NNE 6.4 km/h 18.5 km/h 58 % 0 mm
11:33 24.1 °C 15.1 °C 1003.3 hPa NNW 6.8 km/h 13 km/h 57 % 0 mm
11:38 24.4 °C 15.1 °C 1003.3 hPa NNE 8.4 km/h 14.5 km/h 56 % 0 mm
11:43 24.6 °C 14.7 °C 1003.3 hPa SSW 11.3 km/h 22.2 km/h 54 % 0 mm
11:48 24.8 °C 15.2 °C 1003.3 hPa NW 10 km/h 13 km/h 55 % 0 mm
11:50 24.9 °C 15.8 °C 1003.3 hPa NE 6.3 km/h 13 km/h 57 % 0 mm
11:55 25.2 °C 14.9 °C 1003.3 hPa NNW 6.6 km/h 11.1 km/h 53 % 0 mm
12:01 25.4 °C 15.4 °C 1003.6 hPa ENE 11.7 km/h 14.8 km/h 54 % 0 mm
12:06 25.6 °C 15.3 °C 1003.6 hPa North 6.4 km/h 11.1 km/h 53 % 0 mm
12:11 25.7 °C 14.4 °C 1003.6 hPa North 2.3 km/h 16.7 km/h 50 % 0 mm
12:16 25.8 °C 14.9 °C 1003.3 hPa NNE 3.9 km/h 14.8 km/h 51 % 0 mm
12:21 25.9 °C 15.3 °C 1003.3 hPa NW 8 km/h 14.8 km/h 52 % 0 mm
12:26 26.1 °C 16.1 °C 1003.3 hPa North 6.9 km/h 14.5 km/h 54 % 0 mm
12:31 26.3 °C 14.7 °C 1003.6 hPa North 13 km/h 18.5 km/h 49 % 0 mm
12:36 26.2 °C 15.3 °C 1003.6 hPa NNW 8.2 km/h 18.5 km/h 51 % 0 mm
12:41 26.3 °C 15 °C 1003.3 hPa NE 6.8 km/h 13 km/h 50 % 0 mm
12:46 26.3 °C 14.8 °C 1003.6 hPa NNE 9 km/h 18.5 km/h 49 % 0 mm
12:51 26.4 °C 14.9 °C 1003.3 hPa North 11.1 km/h 16.1 km/h 49 % 0 mm
12:56 26.4 °C 14.5 °C 1003.3 hPa NE 7.4 km/h 18.5 km/h 48 % 0 mm
13:01 26.4 °C 15.5 °C 1003.3 hPa NNE 10.1 km/h 14.8 km/h 51 % 0 mm
13:07 26.4 °C 14.8 °C 1003.3 hPa NNE 10.8 km/h 18.5 km/h 49 % 0 mm
13:12 26.2 °C 14 °C 1003.3 hPa WNW 8 km/h 18.5 km/h 47 % 0 mm
13:15 26.2 °C 14.6 °C 1003.3 hPa NNE 8.7 km/h 16.7 km/h 49 % 0 mm
13:20 26.2 °C 14.7 °C 1003.3 hPa WNW 8.7 km/h 14.8 km/h 49 % 0 mm
13:25 26.3 °C 14.7 °C 1002.9 hPa NW 8.2 km/h 16.7 km/h 49 % 0 mm
13:30 26.3 °C 14.4 °C 1002.9 hPa North 7.4 km/h 16.7 km/h 48 % 0 mm
13:35 26.2 °C 14.3 °C 1002.9 hPa NE 8.9 km/h 16.7 km/h 48 % 0 mm
13:40 26.2 °C 14.3 °C 1003.3 hPa NW 11.1 km/h 19.3 km/h 48 % 0 mm
13:45 26.1 °C 13.9 °C 1002.9 hPa North 10.5 km/h 14.5 km/h 47 % 0 mm
13:50 26 °C 13.5 °C 1002.9 hPa NNW 9.8 km/h 16.7 km/h 46 % 0 mm
13:55 26 °C 14.4 °C 1002.9 hPa North 9 km/h 14.8 km/h 49 % 0 mm
14:01 26.1 °C 14.8 °C 1002.9 hPa North 5.3 km/h 9.3 km/h 50 % 0 mm
14:06 26.2 °C 14.9 °C 1002.9 hPa NE 11.6 km/h 20.9 km/h 50 % 0 mm
14:11 26.2 °C 14.7 °C 1002.9 hPa NNW 8 km/h 25.9 km/h 49 % 0 mm
14:16 26.2 °C 15 °C 1002.9 hPa North 7.2 km/h 13 km/h 50 % 0 mm
14:21 26.2 °C 14.3 °C 1002.9 hPa NNW 14.3 km/h 20.4 km/h 48 % 0 mm
14:26 26.3 °C 14.7 °C 1002.9 hPa NNE 10.6 km/h 14.8 km/h 49 % 0 mm
14:31 26.2 °C 14.3 °C 1002.9 hPa North 10.3 km/h 14.8 km/h 48 % 0 mm
14:36 26.3 °C 15 °C 1002.9 hPa NNW 10.8 km/h 20.4 km/h 50 % 0 mm
14:41 26.2 °C 14.3 °C 1002.9 hPa North 11.3 km/h 18.5 km/h 48 % 0 mm
14:46 26.2 °C 14.6 °C 1002.9 hPa NNW 6.1 km/h 18.5 km/h 49 % 0 mm
14:51 26.1 °C 14.2 °C 1002.9 hPa North 9.5 km/h 14.8 km/h 48 % 0 mm
14:56 26.1 °C 14.2 °C 1002.9 hPa NNW 13.2 km/h 16.1 km/h 48 % 0 mm
15:01 26 °C 14.1 °C 1002.9 hPa North 6 km/h 20.4 km/h 48 % 0 mm
15:06 25.9 °C 14.1 °C 1002.9 hPa North 11.7 km/h 20.4 km/h 48 % 0 mm
15:11 25.8 °C 13.6 °C 1002.9 hPa North 15.6 km/h 27.8 km/h 47 % 0 mm
15:16 25.6 °C 13.4 °C 1003.3 hPa North 11.9 km/h 18.5 km/h 47 % 0 mm
15:21 25.4 °C 13.3 °C 1003.3 hPa NE 10.9 km/h 22.2 km/h 47 % 0 mm
15:26 25.2 °C 13.7 °C 1003.3 hPa North 12.9 km/h 22.2 km/h 49 % 0 mm
15:31 25.1 °C 12.9 °C 1003.3 hPa NNE 12.1 km/h 20.4 km/h 47 % 0 mm
15:36 25 °C 14.2 °C 1003.3 hPa North 11.3 km/h 20.4 km/h 51 % 0 mm
15:41 24.9 °C 13.2 °C 1003.3 hPa North 15.3 km/h 20.4 km/h 48 % 0 mm
15:47 24.8 °C 13.4 °C 1003.6 hPa North 11.1 km/h 18.5 km/h 49 % 0 mm
15:52 24.6 °C 13.2 °C 1003.3 hPa NNE 7.2 km/h 16.7 km/h 49 % 0 mm
15:57 24.6 °C 13.4 °C 1003.6 hPa NNW 7.9 km/h 11.1 km/h 50 % 0 mm
16:02 24.6 °C 13.2 °C 1003.6 hPa NNE 7.9 km/h 14.8 km/h 49 % 0 mm
16:07 24.6 °C 14.1 °C 1003.6 hPa North 5.5 km/h 14.8 km/h 52 % 0 mm
16:12 24.5 °C 13.4 °C 1003.6 hPa North 7.6 km/h 18.5 km/h 50 % 0 mm
16:17 24.4 °C 13.6 °C 1003.6 hPa NNE 8 km/h 14.8 km/h 51 % 0 mm
16:22 24.2 °C 13.4 °C 1003.9 hPa NNE 9.7 km/h 18.5 km/h 51 % 0 mm
16:27 24.1 °C 13.3 °C 1003.9 hPa North 13.5 km/h 22.2 km/h 51 % 0 mm
16:32 23.9 °C 12.8 °C 1003.9 hPa NNE 10.9 km/h 16.7 km/h 50 % 0 mm
16:37 23.8 °C 13.3 °C 1003.9 hPa North 14 km/h 22.2 km/h 52 % 0 mm
16:42 23.7 °C 13.3 °C 1003.9 hPa NNW 9.2 km/h 18.5 km/h 52 % 0 mm
16:47 23.6 °C 12.9 °C 1003.9 hPa NNE 6.9 km/h 16.7 km/h 51 % 0 mm
16:52 23.5 °C 12.8 °C 1003.9 hPa NNE 16.9 km/h 24.1 km/h 51 % 0 mm
16:57 23.3 °C 12.3 °C 1003.9 hPa NNW 11.7 km/h 14.8 km/h 50 % 0 mm
17:02 23.2 °C 12.8 °C 1003.9 hPa NNE 13.7 km/h 20.9 km/h 52 % 0 mm
17:07 23.1 °C 12.4 °C 1004.3 hPa NE 13.2 km/h 18.5 km/h 51 % 0 mm
17:12 23 °C 12.6 °C 1004.3 hPa NNE 11.7 km/h 20.4 km/h 52 % 0 mm
17:17 22.9 °C 12.6 °C 1004.3 hPa North 11.1 km/h 16.7 km/h 52 % 0 mm
17:22 22.8 °C 12.7 °C 1004.3 hPa NNE 14.2 km/h 19.3 km/h 53 % 0 mm
17:27 22.8 °C 12.4 °C 1004.6 hPa NNE 13.5 km/h 20.4 km/h 52 % 0 mm
17:32 22.7 °C 12.6 °C 1004.6 hPa North 10.3 km/h 16.7 km/h 53 % 0 mm
17:37 22.6 °C 12.6 °C 1004.6 hPa NNE 9.3 km/h 22.2 km/h 53 % 0 mm
17:39 22.6 °C 12.8 °C 1004.6 hPa North 10.8 km/h 18.5 km/h 54 % 0 mm
17:44 22.6 °C 12.8 °C 1004.6 hPa North 9.5 km/h 16.7 km/h 54 % 0 mm
17:49 22.5 °C 12.2 °C 1005 hPa NNE 8.9 km/h 13 km/h 52 % 0 mm
17:54 22.4 °C 12.6 °C 1004.6 hPa NNE 9.7 km/h 14.8 km/h 54 % 0 mm
17:59 22.3 °C 12.3 °C 1005 hPa North 8.5 km/h 14.8 km/h 53 % 0 mm
18:04 22.2 °C 12.2 °C 1005 hPa NNE 8.5 km/h 18.5 km/h 53 % 0 mm
18:09 22.2 °C 12.4 °C 1005 hPa NNW 13 km/h 24.1 km/h 54 % 0 mm
18:14 22.1 °C 12.3 °C 1005.3 hPa NNE 12.1 km/h 24.1 km/h 54 % 0 mm
18:19 21.9 °C 11.9 °C 1005 hPa NE 16.6 km/h 27.8 km/h 53 % 0 mm
18:23 21.8 °C 11.6 °C 1005.3 hPa NNW 9.8 km/h 18.5 km/h 52 % 0 mm
18:28 21.8 °C 11.8 °C 1005.3 hPa NNE 15.9 km/h 25.9 km/h 53 % 0 mm
18:34 21.7 °C 11.4 °C 1005.3 hPa North 13.4 km/h 29.6 km/h 52 % 0 mm
18:39 21.6 °C 11.3 °C 1005.3 hPa NE 10.6 km/h 24.1 km/h 52 % 0 mm
18:49 21.3 °C 10.8 °C 1005.6 hPa North 11.3 km/h 22.2 km/h 51 % 0 mm
18:54 21.2 °C 11.3 °C 1006 hPa NNW 16.9 km/h 25.9 km/h 53 % 0 mm
18:59 21.2 °C 10.6 °C 1006 hPa NNW 14.2 km/h 27.8 km/h 51 % 0 mm
19:04 21.1 °C 10.5 °C 1006.3 hPa ENE 11.4 km/h 29.6 km/h 51 % 0 mm
19:09 20.9 °C 10.4 °C 1006.3 hPa North 14.6 km/h 27.4 km/h 51 % 0 mm
19:14 20.8 °C 10.6 °C 1006 hPa NNE 5.3 km/h 11.1 km/h 52 % 0 mm
19:19 20.8 °C 11.1 °C 1006.3 hPa NW 8.2 km/h 22.5 km/h 54 % 0 mm
19:24 20.7 °C 10.8 °C 1006.7 hPa North 7.6 km/h 19.3 km/h 53 % 0 mm
19:29 20.6 °C 10.7 °C 1006.7 hPa NNE 10.6 km/h 16.7 km/h 53 % 0 mm
19:34 20.5 °C 10.9 °C 1006.3 hPa South 7.6 km/h 18.5 km/h 54 % 0 mm
19:39 20.4 °C 10.8 °C 1006.7 hPa NNE 9.3 km/h 19.3 km/h 54 % 0 mm
19:45 20.3 °C 10.4 °C 1006.7 hPa NE 10.3 km/h 14.8 km/h 53 % 0 mm
19:50 20.3 °C 10.4 °C 1007 hPa NE 12.2 km/h 18.5 km/h 53 % 0 mm
19:55 20.2 °C 11.2 °C 1007 hPa NE 6.1 km/h 13 km/h 56 % 0 mm
20:00 20.1 °C 10.5 °C 1007 hPa North 9.3 km/h 14.8 km/h 54 % 0 mm
20:05 20.1 °C 10.4 °C 1007 hPa NE 9 km/h 18.5 km/h 54 % 0 mm
20:10 20.1 °C 10.4 °C 1007 hPa North 6 km/h 18.5 km/h 54 % 0 mm
20:15 19.9 °C 10.3 °C 1007.3 hPa North 14.2 km/h 31.5 km/h 54 % 0 mm
20:20 19.9 °C 10.6 °C 1007.3 hPa North 9.8 km/h 24.1 km/h 55 % 0 mm
20:25 19.9 °C 10.6 °C 1007.3 hPa NNW 11.1 km/h 18.5 km/h 55 % 0 mm
20:30 19.8 °C 10.5 °C 1007.3 hPa NNE 10.6 km/h 18.5 km/h 55 % 0 mm
20:35 19.8 °C 10.2 °C 1007.7 hPa North 13 km/h 22.5 km/h 54 % 0 mm
20:40 19.7 °C 10.4 °C 1007.7 hPa NNW 6.4 km/h 13 km/h 55 % 0 mm
20:45 19.7 °C 10.4 °C 1008 hPa NNE 7.4 km/h 14.8 km/h 55 % 0 mm
20:50 19.6 °C 10.6 °C 1008 hPa North 12.2 km/h 27.8 km/h 56 % 0 mm
20:55 19.6 °C 10.8 °C 1008 hPa NNW 6 km/h 14.8 km/h 57 % 0 mm
21:00 19.5 °C 10.5 °C 1008 hPa NNE 6.8 km/h 20.9 km/h 56 % 0 mm
21:05 19.4 °C 10.4 °C 1008 hPa North 4.5 km/h 14.8 km/h 56 % 0 mm
21:10 19.3 °C 10.6 °C 1008 hPa NNE 8.9 km/h 16.7 km/h 57 % 0 mm
21:15 19.2 °C 10.5 °C 1008 hPa NNE 5.6 km/h 13 km/h 57 % 0 mm
21:20 19.2 °C 10.9 °C 1008.4 hPa North 6.8 km/h 13 km/h 59 % 0 mm
21:25 19.1 °C 10.8 °C 1008.4 hPa NNE 9.7 km/h 13 km/h 59 % 0 mm
21:30 19 °C 11.1 °C 1008.4 hPa NNW 8.5 km/h 13 km/h 60 % 0 mm
21:35 18.9 °C 10.8 °C 1008.4 hPa NNE 12.1 km/h 18.5 km/h 59 % 0 mm
21:40 18.9 °C 10.7 °C 1008.4 hPa NW 7.9 km/h 18.5 km/h 59 % 0 mm
21:45 18.8 °C 10.7 °C 1008.4 hPa NNE 5.8 km/h 9.7 km/h 59 % 0 mm
21:50 18.7 °C 10.8 °C 1008.7 hPa North 5.6 km/h 16.7 km/h 60 % 0 mm
21:55 18.7 °C 10.5 °C 1009 hPa WNW 8.5 km/h 18.5 km/h 59 % 0 mm
22:00 18.6 °C 10.4 °C 1008.7 hPa WNW 9.7 km/h 16.7 km/h 59 % 0 mm
22:05 18.4 °C 10 °C 1009 hPa North 13.2 km/h 22.2 km/h 58 % 0 mm
22:10 18.3 °C 9.9 °C 1009 hPa North 11.6 km/h 18.5 km/h 58 % 0 mm
22:15 18.3 °C 9.9 °C 1009 hPa North 6.6 km/h 16.7 km/h 58 % 0 mm
22:21 18.3 °C 10.1 °C 1009 hPa North 11.3 km/h 20.9 km/h 59 % 0 mm
22:31 18.1 °C 10.2 °C 1009 hPa NNE 11.1 km/h 11.1 km/h 60 % 0 mm
22:35 18.1 °C 10.7 °C 1009.4 hPa NNE 7.6 km/h 14.8 km/h 62 % 0 mm
22:40 18 °C 10.4 °C 1009.4 hPa NNW 6.4 km/h 18.5 km/h 61 % 0 mm
22:41 18 °C 10.4 °C 1009.4 hPa NW 5.8 km/h 18.5 km/h 61 % 0 mm
22:46 17.9 °C 10.1 °C 1009.4 hPa NNE 14.2 km/h 25.9 km/h 60 % 0 mm
22:51 17.8 °C 9.9 °C 1009.4 hPa North 12.1 km/h 27.8 km/h 60 % 0 mm
22:56 17.8 °C 9.7 °C 1009.7 hPa NNE 15.9 km/h 25.9 km/h 59 % 0 mm
23:01 17.7 °C 10.1 °C 1009.7 hPa NNW 9.8 km/h 20.4 km/h 61 % 0 mm
23:06 17.6 °C 9.7 °C 1009.7 hPa North 10.9 km/h 29.6 km/h 60 % 0 mm
23:11 17.6 °C 9.9 °C 1009.7 hPa NNW 8.9 km/h 13 km/h 61 % 0 mm
23:17 17.4 °C 9.8 °C 1010 hPa North 12.6 km/h 25.9 km/h 61 % 0 mm
23:21 17.4 °C 9.8 °C 1010 hPa NNE 12.9 km/h 24.1 km/h 61 % 0 mm
23:26 17.3 °C 9.7 °C 1010 hPa NNW 9.3 km/h 22.2 km/h 61 % 0 mm
23:27 17.3 °C 9.7 °C 1010 hPa NNW 13 km/h 20.4 km/h 61 % 0 mm
23:31 17.3 °C 9.4 °C 1010 hPa North 16.3 km/h 24.1 km/h 60 % 0 mm
23:36 17.2 °C 9.3 °C 1010 hPa North 11.6 km/h 20.4 km/h 60 % 0 mm
23:38 17.2 °C 9.6 °C 1010 hPa NNW 12.1 km/h 18.5 km/h 61 % 0 mm
23:43 17.1 °C 9.7 °C 1010.4 hPa NNE 6.1 km/h 13 km/h 62 % 0 mm
23:48 17 °C 9.7 °C 1010 hPa North 16.4 km/h 32.2 km/h 62 % 0 mm
23:53 16.9 °C 9.8 °C 1010.4 hPa NE 10.5 km/h 14.8 km/h 63 % 0 mm
23:59 16.8 °C 9.7 °C 1010.4 hPa North 6 km/h 16.1 km/h 63 % 0 mm
Crab Meadow Weather
Compliments of Weather Underground - 3 mb

Script developed by  Jim McMurry - jmcmurry@mwt.net Adapted for the template by  Wim van der Kuil - Leuven-Template.eu

Lightning: At any given moment, there are about 1,800 thunderstorms happening around the world. Approximately 100 lightning bolts strike the earth every second.